sat.trackr.live / text

‹ back to catalog

TRANSPORTER-14 OBJECT AC

NORAD 64554 · 2025-135AC

PAYLOAD ACTIVE UNKNOWN

§ Identity

Operator
Country
TBD
Launch date
2025-06-23
Launch site
AFWTR
Launch vehicle
Mass (kg)
RCS (m²)

External: N2YO · Heavens-Above · Gunter

§ Orbital elements

Epoch: 2026-05-24T18:18:17.721504Z

Period
94.13 min
Inclination
97.4612°
Eccentricity
0.0001769
Mean motion
15.29804772 rev/d
Perigee alt
475.2 km
Apogee alt
477.6 km
Semi-major
6,854.5 km
B*
5.7357e-4
RAAN
261.7838°
Arg perigee
64.8670°
Mean anomaly
295.2754°
Rev number
5,142

§ Raw data

TRANSPORTER-14 OBJECT AC1 64554U 25135AC  26144.76270511  .00016499  00000+0  57357-3 0  99942 64554  97.4612 261.7838 0001769  64.8670 295.2754 15.29804772 51425

JSON: /api/v1/satellites/64554 · /tle

For live sub-satellite position, see the globe view (requires WebGL).

§ Visibility from observer

Set your observer location to see the next 7 days of passes ≥ 10°. The values pass through the URL so the page stays shareable.

No JS? Fill the form by hand. The geolocation button needs JavaScript.